Location: Milton
(43.5183°N, 79.8775°W)
Time: 19:53:39
(UTC+00:00)

STARLINK-5290 - Pass Details

Date: 27 November 2022
Orbit: 539 x 540 km, 53.2° (Epoch: 03 February)

Event Time Altitude Azimuth Distance (km) Brightness Sun altitude
Exits shadow 10:15:39 30° 184° (S) 995 ? -23.5°
Drops below altitude 10° 10:18:12 10° 156° (SSE) 1,810 ? -23.1°
Sets 10:20:30 0° 148° (SSE) 2,696 ? -22.7°
